Tracking 27107 objects as of 20-Mar-2023
HD Live streaming from Space Station
objects crossing your sky now

SL-16 DEB

Track SL-16 DEB now!
10-day predictions


NORAD ID: 22400
Int'l Code: 1992-093CR
Perigee: 826.8 km
Apogee: 1,061.6 km
Inclination: 71.2 °
Period: 103.8 minutes
Semi major axis: 7315 km
RCS: 0.0099 m2 (small)
Launch date: December 25, 1992
Source: Commonwealth of Independent States (former USSR) (CIS)
Launch site: TYURATAM MISSILE AND SPACE COMPLEX (TTMTR)

Note: This is SATELLITE DEBRIS
Your satellite tracking list
Your tracking list is empty




NASA's NSSDC Master Catalog

Two Line Element Set (TLE):
1 22400U 92093CR  23078.27869348  .00000404  00000-0  34181-3 0  9996
2 22400  71.2429  16.2126 0160481 247.1058 267.3771 13.87604722528446
Source of the keplerian elements: AFSPC